User: anonymous   Login
Location: *
(51.1248°S, 108.4023°W)
Time: 20:17:16
(UTC+00:00)
Language:

RESURS O1 DEB - Orbit

View from above orbital plane
View from above orbital plane
View from above satellite
View from above satellite

Ground track
Ground track

The orbit data is extracted from the following two-line orbital elements,

1 47201U 94074CP  22015.38465611  .00013140  00000-0  15521-2 0  9997
2 47201  97.9356  69.1220 0002589  59.3564 300.7906 14.84800550 64810
Epoch (UTC): 15 January 2022 09:13:54
Eccentricity: 0.0002589
inclination: 97.9356°
perigee height: 612 km
apogee height: 616 km
right ascension of ascending node: 69.1220°
argument of perigee: 59.3564°
revolutions per day: 14.84800550
mean anomaly at epoch: 300.7906°
orbit number at epoch: 6481

The dashed part of the orbit path shows where the satellite is in the earth's shadow,  

DLR